Simultaneous Nadir Overpasses (SNOs) Predictions

Prediction of SNOs between GOES-15 and TERRA Satellite Orbit:

Table of predicted SNOs for the next 14.0 days since TLE Epoch: 12/14/2024
Index Date Time (GOES-15) GOES-15 Lat,Lon TERRA Lat,Lon Distance(km) Time Diff (sec)
1 12/14/2024 17:26:43 0.11, 61.46 0.18, 61.83 42.28 80
2 12/15/2024 05:46:23 -0.11, 61.39 0.80, 57.04 493.97 80
3 12/17/2024 05:30:40 -0.10, 61.39 -0.12, 61.48 10.38 80
4 12/19/2024 17:32:05 0.09, 61.44 -0.00, 61.10 38.98 80
5 12/21/2024 17:11:02 0.09, 61.43 0.97, 65.52 465.18 80
6 12/22/2024 05:30:41 -0.08, 61.38 0.03, 60.74 71.63 80
7 12/24/2024 05:14:56 -0.08, 61.37 -0.86, 65.19 433.24 80
8 12/24/2024 17:34:44 0.07, 61.42 -0.12, 60.36 119.30 80
9 12/26/2024 17:13:40 0.08, 61.43 0.80, 64.81 384.27 80
10 12/27/2024 05:33:17 -0.07, 61.39 0.24, 60.03 154.23 80
